[[{"header":{"parameterUnit":"m.s-1","parameterCategory":1,"la1":30.2991,"la2":30.254,"lo1":-89.0895,"lo2":-89.0444,"dy":0.0017,"dx":0.0017,"nx":28,"ny":28,"refTime":"2023-04-30T15:00:00:Z","depth":0,"parameterNumber":2,"parameterNumberName":"U-component_of_WINDS"},"data":[0,0,0,0,0,0,0,0,0,0,0,0,0,0,0,0,0,0,0,0,0,0,0,0,0,0,0,0,0,0,0,0,0,0,0,0,0,0,0,0,0,0,0,0,0,0,0,0,0,0,0,0,0,0,0,0,0,0,5.8949,5.8952,0,5.9161,5.9164,5.9166,5.9097,5.9092,5.9088,5.9083,5.9305,5.9315,5.9325,0,0,0,0,0,0,0,0,0,0,0,0,0,5.8486,5.8495,5.8949,5.8952,5.8955,5.9161,5.9164,5.9167,5.9098,5.9092,5.9086,5.9081,5.9302,5.9314,5.9326,0,0,0,0,0,0,0,0,0,0,0,0,0,5.8692,5.8498,5.8949,5.8945,5.8947,5.916,5.9164,5.9168,5.9099,5.9092,5.9085,5.9079,5.9298,5.9312,5.9328,5.9559,0,0,5.9374,5.9381,0,0,0,0,0,0,0,0,5.868,5.8709,5.8943,5.8945,5.8948,5.9095,5.9082,5.9299,5.9101,5.9041,5.9083,5.9075,5.9241,5.9261,5.9316,5.957,5.9579,5.9376,5.9385,5.9391,5.9396,0,0,0,0,0,0,0,5.8666,5.8699,5.9033,5.8946,5.8949,5.8933,5.8955,5.9123,5.9177,5.9046,5.9041,5.9067,5.9241,5.9301,5.932,5.9583,5.9375,5.9389,5.9398,5.9404,6.0034,6.0041,0,0,0,0,0,0,5.865,5.8688,5.9027,5.904,5.8794,5.8947,5.8971,5.9055,5.9175,5.9187,5.9073,5.9063,5.9278,5.9303,5.9328,5.9604,5.9391,5.9406,5.9414,6.0026,6.0035,6.0044,0,0,0,0,0,0,5.864,5.8681,5.9018,5.8863,5.8904,5.8962,5.9057,5.9063,5.9123,5.9196,5.9205,5.9124,5.9274,5.9306,5.9501,5.9611,5.9412,5.9426,6.0017,6.0029,6.004,6.0161,0,0,0,0,0,0,5.8627,5.8678,5.8766,5.8865,5.8913,5.9188,5.9064,5.9072,5.9149,5.9138,5.9246,5.9257,5.9271,5.9479,5.9516,5.9629,5.9438,6.0008,6.0023,6.0036,6.0148,6.0175,6.0199,0,0,0,0,0,5.8611,5.8794,5.8771,5.8812,5.9025,5.9194,5.9222,5.9232,5.9158,5.9247,5.9293,5.9254,5.9593,5.9499,5.9541,5.966,6.0001,6.0018,6.0035,6.0136,6.017,6.0199,0,0,0,0,0,0,5.8709,5.8807,5.8783,5.9003,5.909,5.9182,5.9295,5.9268,5.938,5.9366,5.9376,5.9401,5.96,5.965,5.9543,5.9888,5.9786,5.9812,5.9849,5.9882,5.9907,5.989,5.9451,0,0,0,0,0,5.8756,5.8884,5.8964,5.915,5.9195,5.9238,5.9312,5.9312,5.9404,5.9441,5.9502,5.9594,5.972,5.9804,5.9925,6.0155,6.0176,6.0257,6.0282,6.0303,6.0325,6.0447,6.0483,6.01,6.0099,6.0099,0,0,5.8855,5.8924,5.9005,5.9172,5.9239,5.9372,5.927,5.9416,5.9514,5.9464,5.965,5.9698,5.9801,6.0013,6.011,6.006,6.0436,6.0325,6.0341,6.0352,6.0468,6.0504,6.0537,6.0111,6.0109,6.0107,0,0,5.9102,5.9169,5.9329,5.9399,5.9502,5.9528,5.9567,5.9662,5.9691,5.9878,5.9842,5.996,6.0179,6.0252,6.0319,6.059,6.0557,6.063,6.0764,6.0882,6.0913,6.0939,6.1034,6.1068,6.0652,6.0652,6.0652,0,5.9212,5.941,5.9416,5.9564,5.9637,5.9596,5.9758,5.9826,5.9964,6.0016,5.9958,6.0229,6.0296,6.0523,6.0589,6.0645,6.0688,6.0617,6.0908,6.0935,6.096,6.105,6.1086,6.066,6.0659,6.0658,6.0658,0,5.9539,5.9677,5.9795,5.9926,6.0013,6.0168,6.0197,6.0284,6.0277,6.0309,6.0499,6.0576,6.071,6.0765,6.076,6.0991,6.0957,6.0904,6.0801,6.1004,6.1088,6.1123,6.0671,6.0669,6.0666,6.0664,0,0,5.9856,5.9986,6.0029,6.0086,6.0195,6.0302,6.0454,6.0584,6.0657,6.0754,6.088,6.1065,6.1015,6.109,6.1093,6.1198,6.1404,6.1131,6.1134,6.1177,6.166,6.1697,6.1737,6.1383,6.139,6.1395,6.165,0,6.011,6.0376,6.0384,6.0627,6.0753,6.0714,6.0846,6.0927,6.0961,6.1073,6.1111,6.1241,6.1167,6.1211,6.1313,6.1357,6.1501,6.1339,6.15,6.1506,6.1474,6.1782,6.1824,6.2061,6.1684,6.1689,6.1694,0,6.0443,6.0546,6.0801,6.0888,6.0942,6.106,6.1177,6.1286,6.1376,6.1393,6.1475,6.1462,6.1617,6.1509,6.1721,6.1611,6.1677,6.1709,6.1718,6.1733,6.1611,6.1803,6.2137,6.2172,6.1746,6.1742,6.1738,0,6.0645,6.0848,6.1026,6.1077,6.1184,6.1268,6.1317,6.14,6.1476,6.1579,6.1628,6.1749,6.1815,6.1908,6.1928,6.1848,6.2139,6.2034,6.2157,6.2157,6.2219,6.2215,6.2567,6.2266,6.2265,6.2265,6.2264,0,6.0927,6.1084,6.1117,6.1226,6.14,6.1408,6.158,6.1623,6.1697,6.1813,6.1788,6.1898,6.1917,6.2032,6.2048,6.222,6.2251,6.2268,6.227,6.2269,6.2267,6.2312,6.2295,6.2274,6.2272,6.227,6.2268,0,6.1182,6.1211,6.1401,6.1486,6.1511,6.1635,6.1708,6.1812,6.1842,6.1989,6.2025,6.2072,6.2205,6.2233,6.2392,6.2402,6.2605,6.2593,6.2574,6.2572,6.2693,6.268,6.3084,6.3137,6.2803,6.2807,6.2809,0,6.136,6.1478,6.1575,6.165,6.1702,6.1824,6.19,6.1913,6.1993,6.2103,6.2194,6.2323,6.2427,6.2641,6.269,6.281,6.2798,6.2932,6.2817,6.2811,6.2797,6.2789,6.28,6.2954,6.2957,6.296,6.2962,0,6.167,6.1678,6.1788,6.1903,6.1994,6.2086,6.2173,6.2236,6.226,6.2352,6.2485,6.2566,6.2725,6.2853,6.2973,6.3023,6.2997,6.2998,6.3032,6.3032,6.3015,6.3023,6.2632,6.2989,6.2986,6.2984,6.2983,6.2982,6.189,6.1993,6.2075,6.2198,6.2264,6.2346,6.2446,6.2487,6.2599,6.2728,6.2729,6.2875,6.296,6.3117,6.3175,6.3288,6.3247,6.3297,6.331,6.3322,6.3331,6.2998,6.3311,6.331,6.3309,6.3309,6.3308,0,6.2197,6.2248,6.2361,6.2481,6.2578,6.2543,6.2636,6.2719,6.2847,6.2928,6.3029,6.3182,6.3305,6.3363,6.3484,6.3564,6.3555,6.3596,6.3589,6.36,6.3363,6.332,6.3601,6.3601,6.3601,6.3601,6.3601,6.3601,6.2368,6.2538,6.2555,6.2757,6.2807,6.2948,6.3004,6.3078,6.3142,6.3313,6.3414,6.345,6.3521,6.3647,6.3758,6.3772,6.3817,6.3863,6.3871,6.3647,6.3618,6.3589,6.3548,6.3873,6.3873,6.4098,6.41,6.4102]},{"header":{"parameterUnit":"m.s-1","parameterCategory":1,"la1":30.2991,"la2":30.254,"lo1":-89.0895,"lo2":-89.0444,"dy":0.0017,"dx":0.0017,"nx":28,"ny":28,"refTime":"2023-04-30T15:00:00:Z","depth":0,"parameterNumber":3,"parameterNumberName":"V-component_of_WINDS"},"data":[0,0,0,0,0,0,0,0,0,0,0,0,0,0,0,0,0,0,0,0,0,0,0,0,0,0,0,0,0,0,0,0,0,0,0,0,0,0,0,0,0,0,0,0,0,0,0,0,0,0,0,0,0,0,0,0,0,0,1.1942,1.1943,0,1.2008,1.2009,1.201,1.1983,1.1981,1.198,1.1978,1.2047,1.205,1.2054,0,0,0,0,0,0,0,0,0,0,0,0,0,1.1792,1.1795,1.1942,1.1943,1.1944,1.2008,1.2009,1.201,1.1983,1.1981,1.1979,1.1978,1.2046,1.205,1.2054,0,0,0,0,0,0,0,0,0,0,0,0,0,1.1858,1.1796,1.1942,1.1938,1.1938,1.2008,1.2009,1.201,1.1984,1.1981,1.1979,1.1977,1.2045,1.205,1.2054,1.2132,0,0,1.207,1.2072,0,0,0,0,0,0,0,0,1.1854,1.1863,1.1938,1.1938,1.1939,1.1985,1.1981,1.2051,1.1984,1.1966,1.1978,1.1976,1.2028,1.2034,1.2052,1.2135,1.2138,1.207,1.2073,1.2075,1.2076,0,0,0,0,0,0,0,1.1849,1.186,1.1968,1.1939,1.194,1.1933,1.194,1.1994,1.201,1.1968,1.1966,1.1974,1.2028,1.2047,1.2054,1.2139,1.207,1.2074,1.2077,1.2079,1.2288,1.2291,0,0,0,0,0,0,1.1845,1.1857,1.1966,1.197,1.189,1.1938,1.1945,1.1973,1.2009,1.2012,1.1976,1.1973,1.204,1.2048,1.2056,1.2149,1.2075,1.208,1.2083,1.2286,1.2289,1.2292,0,0,0,0,0,0,1.1842,1.1855,1.1963,1.1913,1.1926,1.1943,1.1974,1.1975,1.1994,1.2015,1.2018,1.1993,1.2039,1.2049,1.2113,1.2151,1.2082,1.2086,1.2283,1.2287,1.229,1.2336,0,0,0,0,0,0,1.1837,1.1854,1.1884,1.1914,1.1929,1.202,1.1976,1.1978,1.2003,1.1999,1.2032,1.2035,1.2038,1.2106,1.2118,1.2157,1.209,1.2279,1.2284,1.2289,1.2331,1.2341,1.2349,0,0,0,0,0,1.1832,1.1894,1.1885,1.1899,1.1967,1.2022,1.2031,1.2032,1.2006,1.2036,1.2049,1.2034,1.2144,1.2113,1.2126,1.2167,1.2277,1.2283,1.2289,1.2327,1.2339,1.2349,0,0,0,0,0,0,1.1869,1.1898,1.1889,1.1962,1.199,1.2017,1.2055,1.2045,1.208,1.2075,1.2075,1.2083,1.2149,1.2164,1.2128,1.2243,1.2207,1.2216,1.2231,1.2243,1.2252,1.2247,1.2094,0,0,0,0,0,1.1885,1.1928,1.1951,1.2014,1.2028,1.2039,1.2063,1.2062,1.209,1.2102,1.212,1.2149,1.219,1.2217,1.2256,1.2332,1.2339,1.2367,1.2376,1.2383,1.2391,1.2432,1.2445,1.2311,1.2311,1.2311,0,0,1.192,1.1941,1.1968,1.2022,1.2043,1.2087,1.2049,1.2098,1.213,1.211,1.2171,1.2185,1.2217,1.2288,1.232,1.2302,1.2429,1.2391,1.2396,1.24,1.244,1.2452,1.2464,1.2315,1.2314,1.2313,0,0,1.2007,1.2027,1.2081,1.2103,1.2135,1.2142,1.2154,1.2184,1.2192,1.2254,1.2239,1.2277,1.2348,1.2371,1.2392,1.2485,1.2472,1.2498,1.2546,1.2586,1.2596,1.2606,1.2639,1.2651,1.2505,1.2505,1.2505,0,1.2046,1.2112,1.211,1.216,1.2183,1.2166,1.222,1.2241,1.2285,1.2302,1.2281,1.2369,1.2389,1.2464,1.2487,1.2504,1.2519,1.2495,1.2595,1.2604,1.2613,1.2645,1.2657,1.2508,1.2508,1.2508,1.2507,0,1.2159,1.2204,1.2244,1.2286,1.2314,1.2366,1.2372,1.2401,1.2396,1.2405,1.2467,1.249,1.2534,1.2551,1.2547,1.2626,1.2614,1.2594,1.2558,1.2629,1.2659,1.2671,1.2512,1.2511,1.251,1.251,0,0,1.2272,1.2311,1.2326,1.2344,1.2377,1.2413,1.2463,1.2505,1.2529,1.2559,1.2601,1.2661,1.2642,1.2666,1.2664,1.2699,1.2772,1.2675,1.2676,1.2693,1.286,1.2875,1.2889,1.2763,1.2765,1.2767,1.2857,0,1.2361,1.2449,1.2449,1.2531,1.2573,1.2556,1.26,1.2625,1.2634,1.2671,1.2681,1.2723,1.2695,1.2709,1.2743,1.2756,1.2805,1.2749,1.2803,1.2805,1.2796,1.2905,1.2922,1.3006,1.2869,1.2871,1.2872,0,1.2477,1.251,1.2596,1.2623,1.264,1.268,1.2717,1.2753,1.278,1.2784,1.281,1.2803,1.2854,1.2815,1.2885,1.2847,1.2868,1.2878,1.2881,1.2887,1.2843,1.2914,1.3033,1.3046,1.289,1.2889,1.2888,0,1.2551,1.2617,1.2677,1.2693,1.2726,1.2754,1.2769,1.2794,1.2819,1.2851,1.2867,1.2905,1.2927,1.2956,1.2959,1.293,1.303,1.2991,1.3035,1.3035,1.3058,1.3057,1.3182,1.307,1.307,1.307,1.3069,0,1.2652,1.2705,1.2711,1.2748,1.2807,1.2806,1.2864,1.2876,1.2899,1.2938,1.2925,1.2961,1.2963,1.3,1.3002,1.306,1.307,1.3075,1.3075,1.3076,1.3076,1.3092,1.3086,1.3073,1.3072,1.3072,1.3071,0,1.2745,1.2751,1.2816,1.284,1.2848,1.289,1.2911,1.2946,1.2953,1.3003,1.3014,1.3026,1.3069,1.3074,1.3125,1.3127,1.3196,1.319,1.3187,1.3186,1.323,1.3226,1.3371,1.339,1.3265,1.3266,1.3267,0,1.2809,1.285,1.2879,1.2903,1.292,1.296,1.2985,1.2984,1.3011,1.3045,1.3076,1.3117,1.3151,1.3221,1.3234,1.3272,1.3267,1.3315,1.3273,1.3273,1.3268,1.3266,1.327,1.3324,1.3325,1.3326,1.3327,0,1.2922,1.2923,1.2959,1.2997,1.3026,1.3056,1.3083,1.3104,1.3107,1.3137,1.3181,1.3207,1.3258,1.33,1.3338,1.3352,1.3341,1.334,1.3352,1.3355,1.3352,1.3354,1.321,1.3337,1.3336,1.3335,1.3335,1.3334,1.3004,1.3039,1.3064,1.3105,1.3125,1.3151,1.3185,1.3196,1.3232,1.3274,1.3271,1.332,1.3345,1.3394,1.3412,1.3449,1.3433,1.3451,1.3456,1.346,1.3465,1.3344,1.3456,1.3456,1.3455,1.3455,1.3455,0,1.3117,1.3132,1.3169,1.3208,1.3239,1.3224,1.3253,1.3281,1.3324,1.3348,1.3381,1.3431,1.3471,1.3487,1.3526,1.3553,1.3548,1.3563,1.3562,1.3565,1.3477,1.3463,1.3566,1.3566,1.3566,1.3566,1.3566,1.3566,1.3179,1.3238,1.3241,1.3309,1.3324,1.3371,1.3389,1.3413,1.3432,1.3489,1.3522,1.3531,1.3552,1.3592,1.3628,1.3631,1.3647,1.3664,1.3665,1.3583,1.3572,1.3561,1.3548,1.3667,1.3667,1.3751,1.3751,1.3752]}]]